Location: Newark
(13.6797°N, 8.5297°E)
Time: 17:14:39
(UTC+00:00)

A-11 Canister half - Pass Details

Date: 19 January 2020
Orbit: 1517 x 1683 km, 47.2° (Epoch: 26 February)

Event Time Altitude Azimuth Distance (km) Brightness Sun altitude
Rises 09:24:45 0° 309° (NW) 4,710 11.1 43.0°
Reaches altitude 10° 09:27:53 10° 304° (NW) 3,746 10.7 43.5°
Maximum altitude 09:36:58 51° 231° (SW) 1,937 10.1 45.0°
Drops below altitude 10° 09:46:24 10° 158° (SSE) 3,871 12.0 46.5°
Sets 09:49:43 0° 153° (SSE) 4,877 12.3 47.0°
